Location: McFarlands Corners
(41.4117°N, 81.3382°W)
Time: 09:50:37
(UTC+00:00)

Courier 1B Rocket - Pass Details

Date: 23 February 2026
Orbit: 920 x 1201 km, 28.2° (Epoch: 10 March)

Event Time Altitude Azimuth Distance (km) Brightness Sun altitude
Rises 21:47:39 0° 220° (SW) 3,628 9.3 13.6°
Reaches altitude 10° 21:51:20 10° 201° (SSW) 2,644 8.1 12.9°
Maximum altitude 21:55:07 16° 164° (SSE) 2,185 7.0 12.3°
Drops below altitude 10° 21:58:51 10° 126° (SE) 2,604 7.0 11.7°
Sets 22:02:26 0° 106° (ESE) 3,547 7.5 11.0°
